Regional Weather Roundup
Issued by NWS

Home | Current Version | Previous Version | Text Only | Print | Product List | Glossary On
Versions: 1 2 3 4 5 6 7 8 9 10 11 12 13 14 15 16 17 18 19 20 21 22 23 24 25 26 27
000
ASUS45 KREV 240210
RWRNV
NEVADA REGIONAL WEATHER ROUNDUP
NATIONAL WEATHER SERVICE RENO NV
600 PM PST THU NOV 23 2017

NOTE: "FAIR" INDICATES FEW OR NO CLOUDS BELOW 12,000 FEET WITH NO
SIGNIFICANT WEATHER AND/OR OBSTRUCTIONS TO VISIBILITY.

NVZ001-003-004-240300-
WESTERN NEVADA

CITY           SKY/WX    TMP DP  RH WIND       PRES   REMARKS
RENO           MOCLDY    63  37  38 S17       30.12R
CARSON CITY    CLOUDY    63  32  31 SW3       30.16R
MINDEN         CLOUDY    63  28  27 MISG      30.17R
SLIDE MTN        N/A     39  34  81 W37         N/A
PYRAMID LAKE     N/A     64 N/A N/A S8          N/A
FALLON         CLOUDY    66  31  27 N5        30.09F
LOVELOCK       CLOUDY    58  39  49 SE3       30.09S
HAWTHORNE      CLEAR     59  36  41 SW6       30.11S
$$

NVZ002-CAZ072-073-240300-
NORTHERN AND CENTRAL SIERRA

CITY           SKY/WX    TMP DP  RH WIND       PRES   REMARKS
S. LAKE TAHOE  CLOUDY    51  36  56 CALM      30.23S
TRUCKEE        CLOUDY    50  34  53 S5        30.22F
SQUAW VLY 8000   N/A     43  30  61 SW9         N/A
SUSANVILLE     CLEAR     50  43  76 CALM      30.12S
BLUE CANYON    CLOUDY    54  36  50 SE6       30.23F
MAMMOTH LAKES  FAIR      55  23  28 W6        30.30S
$$

NVZ030-031-036-240300-
NORTHERN NEVADA

CITY           SKY/WX    TMP DP  RH WIND       PRES   REMARKS
ELKO           CLOUDY    53  41  63 CALM      30.10F
WINNEMUCCA     CLOUDY    60  35  39 SE5       30.08R
WENDOVER       MOCLDY    48  40  73 W5        30.09F
$$

NVZ035-037-240300-
CENTRAL NEVADA

CITY           SKY/WX    TMP DP  RH WIND       PRES   REMARKS
ELY            CLOUDY    53  27  36 E7        30.20S
EUREKA           N/A     52  32  46 S6        30.18S
$$

NVZ013-014-240300-
SOUTH CENTRAL NEVADA

CITY           SKY/WX    TMP DP  RH WIND       PRES   REMARKS
TONOPAH        CLEAR     48  26  42 N7        30.19S
$$

NVZ017-020-022-240300-
SOUTHERN NEVADA

CITY           SKY/WX    TMP DP  RH WIND       PRES   REMARKS
LAS VEGAS      PTCLDY    72  38  29 SW3       30.03S
N. LAS VEGAS   CLEAR     68  39  34 W6        30.03S
NELLIS AFB     CLEAR     65  35  33 N7        30.01S
HENDERSON      PTCLDY    66  39  37 S8        30.06S
MERCURY        PTCLDY    61  32  33 E7        30.06F
$$




USA.gov is the U.S. government's official web portal to all federal, state and local government web resources and services.